ROMMA est une association bénévole à but non lucratif. Votre soutien est indispensable : ADHERER à ROMMA ou FAIRE un DON

Val-d'Arly - (73, Savoie)

Beaufortain (2050 m)   Longitude: 06° 35' 21" E   Latitude: 45° 46' 53" N Station romma n°118
 

Détail journalier du     <<     >>

Température Humidité Vent Dir Rafale Dir. rafale Ensol.
Heure (°C) (%) (km/h) (km/h) (min)
01:00 -1.8773OSO6ENE0
02:00 -2.0783NE8NE0
03:00 -2.2755N10NE0
04:00 -1.7757SO15SO0
05:00 -2.3782ENE6N0
06:00 -2.4782SSO6SSE0
07:00 -0.9713OSO8OSO20
08:00 0.4662N5N60
09:00 0.4712SO6O40
10:00 0.2744ONO11SSO50
11:00 -0.2797SSO16SSO60
12:00 1.5756SSO11S60
13:00 1.6747SO15SO60
14:00 3.0671NNE6NNE50
15:00 2.0732NNE6NNE10
16:00 1.8743NNE5NE0
17:00 1.0805NNE13NNE10
18:00 0.7838NE15NE40
19:00 -0.6876ENE11E10
20:00 -0.5841E10E0
21:00 -0.4852ESE5ESE0
22:00 -0.4856ENE8ENE0
23:00 0.2765ENE10E0
minuit 0.5735ENE10E0

Graphique du 28-03-2019

 

Serveur OMMA